Chapel Hill, NC

3:31 AM EDT on May 30, 2017 (GMT -0400)
Williams

Weather History for KIGX - January, 2013

Change the Weather History Date:

Saturday, January 12, 2013

  Actual Average Record
Temperature  
Mean Temperature 60 °F -  
Max Temperature 72 °F 48 °F 72 °F (1974)
Min Temperature 48 °F 24 °F 2 °F (1978)
Degree Days  
Heating Degree Days 5    
Growing Degree Days 10 (Base 50)    
Moisture  
Dew Point 54 °F    
Average Humidity 91    
Maximum Humidity 100    
Minimum Humidity 68    
Precipitation  
Precipitation 0.00 in - - ()
Sea Level Pressure  
Sea Level Pressure 30.13 in    
Wind  
Wind Speed 1 mph (WNW)    
Max Wind Speed 6 mph    
Max Gust Speed -    
Visibility 3 miles    
Events Fog    
Averages and records for this station are not official NWS values.
T = Trace of Precipitation, MM = Missing Value Source: NWS Daily Summary

Daily Weather History Graph

Daily Weather History Graph

Search for Another Location

Airport or City:

Trip Planner

Search our weather history database for the weather conditions in past years. The results will help you decide how hot, cold, wet, or windy it might be!

Date:

Astronomy

Jan. 12, 2013 Rise Set
Actual Time 7:26 AM EST 5:23 PM EST
Civil Twilight 6:58 AM EST 5:51 PM EST
Nautical Twilight 6:27 AM EST 6:22 PM EST
Astronomical Twilight 5:56 AM EST 6:53 PM EST
Moon 7:47 AM EST (1/12) 6:46 PM EST (1/12)
Length of Visible Light 10h 52m
Length of Day
9h 56m
New Moon, 1% of the Moon is Illuminated
Jan 12
New Moon
Jan 18
First Quarter
Jan 26
Full
Feb 3
Last Quarter
Feb 10
New

Hourly Weather History & Observations

Time (EST) Temp. Dew Point Humidity Pressure Visibility Wind Dir Wind Speed Gust Speed Precip Events Conditions
1:56 AM 48.0 °F 46.9 °F 96% 30.15 in 1.0 mi Calm Calm - N/A   Mist
2:15 AM 48.0 °F 46.9 °F 96% 30.15 in 2.0 mi Calm Calm - N/A   Overcast
2:27 AM 48.0 °F 46.9 °F 96% 30.15 in 3.0 mi Variable 3.5 mph - N/A   Overcast
2:56 AM 48.9 °F 46.9 °F 93% 30.15 in 4.0 mi Calm Calm - N/A   Overcast
3:16 AM 48.9 °F 46.9 °F 93% 30.15 in 2.5 mi Calm Calm - N/A   Overcast
3:29 AM 48.9 °F 48.0 °F 97% 30.15 in 1.0 mi Calm Calm - N/A   Overcast
3:36 AM 48.9 °F 48.0 °F 97% 30.15 in 0.5 mi Calm Calm - N/A Fog Fog
3:56 AM 48.9 °F 48.0 °F 97% 30.14 in 0.2 mi Calm Calm - N/A Fog Fog
4:56 AM 48.9 °F 46.9 °F 93% 30.13 in 0.2 mi Calm Calm - N/A Fog Fog
5:56 AM 48.9 °F 48.0 °F 97% 30.13 in 0.2 mi Calm Calm - N/A Fog Fog
6:56 AM 50.0 °F 48.0 °F 93% 30.14 in 0.2 mi Calm Calm - N/A Fog Fog
7:56 AM 50.0 °F 48.9 °F 96% 30.15 in 0.2 mi Calm Calm - N/A Fog Fog
8:56 AM 54.0 °F 53.1 °F 97% 30.17 in 0.8 mi Calm Calm - N/A   Overcast
9:05 AM 55.0 °F 53.1 °F 93% 30.17 in 1.2 mi Calm Calm - N/A   Overcast
9:56 AM 55.9 °F 55.0 °F 97% 30.17 in 1.5 mi Calm Calm - N/A   Overcast
10:10 AM 55.9 °F 55.0 °F 97% 30.17 in 2.0 mi Calm Calm - N/A   Overcast
10:26 AM 57.0 °F 55.9 °F 96% 30.17 in 3.0 mi Variable 3.5 mph - N/A   Overcast
10:56 AM 57.9 °F 55.9 °F 93% 30.16 in 5.0 mi Variable 3.5 mph - N/A   Overcast
11:05 AM 57.9 °F 55.9 °F 93% 30.16 in 6.0 mi Variable 4.6 mph - N/A   Overcast
11:25 AM 59.0 °F 57.0 °F 93% 30.15 in 7.0 mi Calm Calm - N/A   Overcast
11:56 AM 63.0 °F 57.9 °F 84% 30.14 in 10.0 mi WNW 5.8 mph - N/A   Mostly Cloudy
12:08 PM 64.0 °F 57.9 °F 80% 30.14 in 10.0 mi West 5.8 mph - N/A   Scattered Clouds
12:56 PM 66.9 °F 59.0 °F 76% 30.11 in 10.0 mi Calm Calm - N/A   Partly Cloudy
1:56 PM 71.1 °F 60.1 °F 68% 30.11 in 10.0 mi Calm Calm - N/A   Clear
2:56 PM 72.0 °F 61.0 °F 68% 30.12 in 10.0 mi Calm Calm - N/A   Scattered Clouds
3:56 PM 71.1 °F 62.1 °F 73% 30.11 in 10.0 mi Calm Calm - N/A   Clear
4:56 PM 69.1 °F 60.1 °F 73% 30.11 in 10.0 mi Calm Calm - N/A   Mostly Cloudy
5:56 PM 64.0 °F 60.1 °F 87% 30.12 in 10.0 mi Calm Calm - N/A   Clear
7:44 PM 60.1 °F 57.9 °F 93% 30.11 in 1.8 mi Calm Calm - N/A   Clear
7:56 PM 60.1 °F 57.9 °F 93% 30.10 in 0.8 mi Calm Calm - N/A   Clear
8:13 PM 59.0 °F 57.9 °F 96% 30.11 in 0.5 mi Calm Calm - N/A Fog Fog
8:56 PM 59.0 °F 57.0 °F 93% 30.11 in 0.2 mi Calm Calm - N/A Fog Fog
9:09 PM 59.0 °F 57.0 °F 93% 30.11 in 0.2 mi Calm Calm - N/A Fog Fog
9:52 PM 57.2 °F 57.2 °F 100% 30.12 in 0.2 mi Calm Calm - N/A Fog Fog
9:56 PM 57.0 °F 55.9 °F 96% 30.12 in 0.2 mi Calm Calm - N/A Fog Fog
10:10 PM 57.9 °F 55.9 °F 93% 30.12 in 0.2 mi Calm Calm - N/A Fog Fog
10:21 PM 57.9 °F 55.9 °F 93% 30.12 in 0.2 mi Calm Calm - N/A Fog Fog
10:56 PM 57.9 °F 55.9 °F 93% 30.11 in 0.2 mi Calm Calm - N/A Fog Fog
11:51 PM 55.4 °F 55.4 °F 100% 30.11 in 0.2 mi Calm Calm - N/A Fog Fog
11:56 PM 54.0 °F 53.1 °F 97% 30.10 in 0.2 mi Calm Calm - N/A Fog Fog